Location: 22
(39.7117°N, 89.5929°W)
Time: 05:15:33
(UTC-05:00)

Vanguard 1 Rocket - Pass Details

Date: 12 February 2023
Orbit: 652 x 4223 km, 34.3° (Epoch: 26 March)

Event Time Altitude Azimuth Distance (km) Brightness Sun altitude
Rises 17:41:56 0° 275° (W) 6,355 13.3 -2.8°
Reaches altitude 10° 17:47:11 10° 261° (W) 5,883 13.5 -3.8°
Maximum altitude 18:00:08 22° 220° (SW) 5,889 12.3 -6.2°
Drops below altitude 10° 18:16:32 10° 179° (S) 7,413 12.1 -9.3°
Sets 18:24:54 0° 167° (SSE) 8,387 12.3 -10.9°
